period_start,C,m1,H,J0,J1,J2,J3,J4,J5,JA,JB,JC,JD,JJ,JK,JN,#
2018-10-05 00:00:39,0.00,0.00,0.00,24.80,29.26,31.26,-0.15,-3.89,1030.29,2018.00,3722.95,3049.02,3508.99,0.00,0.00,0.00,0000 0000 0000 A000 020008
2018-10-05 00:05:40,0.00,0.00,0.00,24.80,29.27,31.29,-0.15,-3.88,1030.29,2018.00,3722.76,3049.00,3508.98,0.00,0.00,0.00,0000 0000 0000 A000 020008
2018-10-05 00:10:41,0.00,0.00,0.00,24.79,29.27,31.26,-0.15,-3.92,1030.29,2018.00,3722.49,3049.00,3508.97,0.00,0.00,0.00,0000 0000 0000 A000 020008
2018-10-05 00:15:42,0.00,0.00,0.00,24.79,29.27,31.25,-0.15,-3.89,1030.31,2018.00,3722.31,3049.00,3508.95,0.00,0.00,0.00,0000 0000 0000 A000 020008
2018-10-05 00:20:43,0.00,0.00,0.00,24.78,29.27,31.27,-0.15,-3.87,1030.33,2018.00,3722.48,3049.00,3508.97,0.00,0.00,0.00,0000 0000 0000 A000 020008
2018-10-05 00:25:44,0.00,0.00,0.00,24.77,29.27,31.26,-0.15,-3.90,1030.35,2018.00,3722.36,3049.00,3508.95,0.00,0.00,0.00,0000 0000 0000 A000 020008
2018-10-05 00:30:45,0.00,0.00,0.00,24.77,29.27,31.19,-0.15,-3.88,1030.36,2018.00,3722.15,3049.00,3508.87,0.00,0.00,0.00,0000 0000 0000 A000 020008
2018-10-05 00:35:46,0.00,0.00,0.00,24.77,29.27,31.24,-0.15,-3.88,1030.41,2017.99,3722.26,3049.00,3508.89,0.00,0.00,0.00,0000 0000 0000 A000 020008
2018-10-05 00:40:47,0.00,0.00,0.00,24.78,29.27,31.26,-0.15,-3.94,1030.65,2017.99,3722.21,3049.00,3508.91,0.00,0.00,0.00,0000 0000 0000 A000 020008
2018-10-05 00:45:49,0.00,0.00,0.00,24.78,29.27,31.25,-0.15,-3.90,1030.72,2017.99,3722.14,3049.00,3508.90,0.00,0.00,0.00,0000 0000 0000 A000 020008
2018-10-05 00:50:50,0.00,0.00,0.00,24.78,29.27,31.19,-0.15,-3.89,1030.77,2017.99,3722.16,3049.00,3508.94,0.00,0.00,0.00,0000 0000 0000 A000 020008
2018-10-05 00:55:51,0.00,0.00,0.00,24.78,29.27,31.25,-0.15,-3.90,1030.78,2017.99,3722.09,3048.99,3508.68,0.00,0.00,0.00,0000 0000 0000 A000 020008
2018-10-05 01:00:53,0.00,0.00,0.00,24.78,29.27,31.22,-0.15,-3.97,1030.78,2017.99,3722.04,3048.99,3508.63,0.00,0.00,0.00,0000 0000 0000 A000 020008
2018-10-05 01:05:54,0.00,0.00,0.00,24.78,29.27,31.25,-0.15,-3.96,1030.78,2017.99,3722.12,3048.99,3508.86,0.00,0.00,0.00,0000 0000 0000 A000 020008
2018-10-05 01:10:56,0.00,0.00,0.00,24.78,29.27,31.20,-0.15,-3.98,1030.78,2017.99,3722.06,3048.99,3508.73,0.00,0.00,0.00,0000 0000 0000 A000 020008
2018-10-05 01:15:57,0.00,0.00,0.00,24.79,29.27,31.27,-0.15,-3.98,1030.78,2017.99,3722.02,3048.99,3508.64,0.00,0.00,0.00,0000 0000 0000 A000 020008
2018-10-05 01:20:58,0.00,0.00,0.00,24.78,29.27,31.25,-0.15,-3.98,1030.78,2017.99,3722.02,3048.99,3508.41,0.00,0.00,0.00,0000 0000 0000 A000 020008
2018-10-05 01:25:59,0.00,0.00,0.00,24.79,29.28,31.26,-0.15,-3.97,1030.78,2017.99,3722.03,3048.99,3508.37,0.00,0.00,0.00,0000 0000 0000 A000 020008
2018-10-05 01:31:01,0.00,0.00,0.00,24.79,29.28,31.25,-0.15,-3.99,1030.79,2017.99,3722.02,3048.99,3508.50,0.00,0.00,0.00,0000 0000 0000 A000 020008
2018-10-05 01:36:02,0.00,0.00,0.00,24.80,29.28,31.22,-0.15,-3.99,1030.79,2017.99,3722.04,3048.99,3508.59,0.00,0.00,0.00,0000 0000 0000 A000 020008
2018-10-05 01:41:03,0.00,0.00,0.00,24.80,29.29,31.26,-0.15,-3.98,1030.81,2017.99,3722.08,3048.99,3508.82,0.00,0.00,0.00,0000 0000 0000 A000 020008
2018-10-05 01:46:04,0.00,0.00,0.00,24.80,29.29,31.28,-0.15,-3.99,1031.00,2017.99,3722.04,3048.99,3508.62,0.00,0.00,0.00,0000 0000 0000 A000 020008
2018-10-05 01:51:05,0.00,0.00,0.00,24.80,29.29,31.23,-0.15,-3.98,1031.15,2017.99,3722.03,3048.99,3508.58,0.00,0.00,0.00,0000 0000 0000 A000 020008
2018-10-05 01:56:06,0.00,0.00,0.00,24.81,29.30,31.26,-0.15,-3.98,1031.22,2017.99,3722.03,3048.99,3508.45,0.00,0.00,0.00,0000 0000 0000 A000 020008
2018-10-05 02:01:07,0.00,0.00,0.00,24.82,29.30,31.24,-0.15,-3.98,1031.25,2017.99,3722.02,3048.99,3508.32,0.00,0.00,0.00,0000 0000 0000 A000 020008
2018-10-05 02:06:08,0.00,0.00,0.00,24.82,29.30,31.25,-0.15,-3.98,1031.23,2017.99,3722.00,3048.99,3508.27,0.00,0.00,0.00,0000 0000 0000 A000 020008
2018-10-05 02:11:10,0.00,0.00,0.00,24.82,29.30,31.26,-0.15,-3.97,1031.26,2017.98,3722.01,3048.99,3508.18,0.00,0.00,0.00,0000 0000 0000 A000 020008
2018-10-05 02:16:11,0.00,0.00,0.00,24.82,29.30,31.30,-0.15,-3.97,1031.26,2017.98,3722.01,3048.98,3508.12,0.00,0.00,0.00,0000 0000 0000 A000 020008
2018-10-05 02:21:12,0.00,0.00,0.00,24.82,29.30,31.25,-0.15,-3.98,1031.27,2017.98,3722.00,3048.99,3508.06,0.00,0.00,0.00,0000 0000 0000 A000 020008
2018-10-05 02:26:13,0.00,0.00,0.00,24.84,29.30,31.20,-0.15,-3.95,1031.28,2017.99,3722.00,3048.98,3508.08,0.00,0.00,0.00,0000 0000 0000 A000 020008
2018-10-05 02:31:14,0.00,0.00,0.00,24.83,29.30,31.24,-0.15,-3.98,1031.28,2017.97,3722.00,3048.97,3508.05,0.00,0.00,0.00,0000 0000 0000 A000 020008
2018-10-05 02:36:15,0.00,0.00,0.00,24.85,29.30,31.23,-0.15,-3.98,1031.32,2017.97,3722.00,3048.96,3508.01,0.00,0.00,0.00,0000 0000 0000 A000 020008
2018-10-05 02:41:17,0.00,0.00,0.00,24.85,29.30,31.26,-0.15,-3.98,1031.55,2017.95,3722.00,3048.94,3508.02,0.00,0.00,0.00,0000 0000 0000 A000 020008
2018-10-05 02:46:18,0.00,0.00,0.00,24.85,29.31,31.31,-0.15,-3.98,1031.71,2017.97,3722.00,3048.93,3508.01,0.00,0.00,0.00,0000 0000 0000 A000 020008
2018-10-05 02:51:19,0.00,0.00,0.00,24.85,29.31,31.25,-0.15,-3.96,1031.74,2017.96,3722.00,3048.90,3508.01,0.00,0.00,0.00,0000 0000 0000 A000 020008
2018-10-05 02:56:20,0.00,0.00,0.00,24.85,29.32,31.29,-0.15,-3.98,1031.75,2017.97,3722.00,3048.93,3508.01,0.00,0.00,0.00,0000 0000 0000 A000 020008
2018-10-05 03:01:21,0.00,0.00,0.00,24.85,29.32,31.25,-0.15,-4.00,1031.76,2017.95,3722.00,3048.87,3508.00,0.00,0.00,0.00,0000 0000 0000 A000 020008
2018-10-05 03:06:22,0.00,0.00,0.00,24.86,29.32,31.27,-0.15,-4.00,1031.76,2017.82,3721.98,3048.57,3508.00,0.00,0.00,0.00,0000 0000 0000 A000 020008
2018-10-05 03:11:23,0.00,0.00,0.00,24.87,29.32,31.31,-0.15,-3.98,1031.76,2017.89,3721.99,3048.62,3508.00,0.00,0.00,0.00,0000 0000 0000 A000 020008
2018-10-05 03:16:25,0.00,0.00,0.00,24.87,29.32,31.24,-0.15,-3.98,1031.77,2017.90,3721.99,3048.60,3508.00,0.00,0.00,0.00,0000 0000 0000 A000 020008
2018-10-05 03:21:26,0.00,0.00,0.00,24.87,29.32,31.28,-0.15,-3.98,1031.77,2017.88,3721.98,3048.48,3508.00,0.00,0.00,0.00,0000 0000 0000 A000 020008
2018-10-05 03:26:27,0.00,0.00,0.00,24.87,29.32,31.29,-0.15,-3.98,1031.80,2017.82,3721.98,3048.39,3508.00,0.00,0.00,0.00,0000 0000 0000 A000 020008
2018-10-05 03:31:28,0.00,0.00,0.00,24.87,29.33,31.30,-0.15,-3.98,1031.93,2017.81,3721.97,3048.33,3508.00,0.00,0.00,0.00,0000 0000 0000 A000 020008
2018-10-05 03:36:29,0.00,0.00,0.00,24.87,29.34,31.29,-0.15,-3.98,1032.06,2017.78,3721.98,3048.40,3508.00,0.00,0.00,0.00,0000 0000 0000 A000 020008
2018-10-05 03:41:31,0.00,0.00,0.00,24.87,29.35,31.28,-0.15,-3.95,1032.13,2017.70,3721.94,3048.21,3508.00,0.00,0.00,0.00,0000 0000 0000 A000 020008
2018-10-05 03:46:32,0.00,0.00,0.00,24.89,29.35,31.37,-0.15,-4.00,1032.22,2017.49,3721.95,3048.09,3507.99,0.00,0.00,0.00,0000 0000 0000 A000 020008
2018-10-05 03:51:34,0.00,0.00,0.00,24.87,29.35,31.30,-0.15,-3.98,1032.23,2017.62,3721.95,3048.10,3507.99,0.00,0.00,0.00,0000 0000 0000 A000 020008
2018-10-05 03:56:35,0.00,0.00,0.00,24.88,29.35,31.30,-0.15,-4.00,1032.24,2017.47,3721.89,3048.04,3507.99,0.00,0.00,0.00,0000 0000 0000 A000 020008
2018-10-05 04:01:36,0.00,0.00,0.00,24.90,29.35,31.30,-0.15,-3.99,1032.24,2017.26,3721.59,3048.01,3507.98,0.00,0.00,0.00,0000 0000 0000 A000 020008
2018-10-05 04:06:37,0.00,0.00,0.00,24.90,29.35,31.30,-0.15,-4.01,1032.24,2017.32,3721.54,3048.01,3507.97,0.00,0.00,0.00,0000 0000 0000 A000 020008
2018-10-05 04:11:38,0.00,0.00,0.00,24.90,29.35,31.35,-0.15,-4.00,1032.25,2017.23,3721.41,3048.01,3507.97,0.00,0.00,0.00,0000 0000 0000 A000 020008
2018-10-05 04:16:40,0.00,0.00,0.00,24.90,29.35,31.37,-0.15,-4.00,1032.26,2017.17,3721.39,3048.01,3507.95,0.00,0.00,0.00,0000 0000 0000 A000 020008
2018-10-05 04:21:41,0.00,0.00,0.00,24.90,29.36,31.35,-0.15,-4.00,1032.29,2017.14,3721.26,3048.00,3507.92,0.00,0.00,0.00,0000 0000 0000 A000 020008
2018-10-05 04:26:42,0.00,0.00,0.00,24.90,29.37,31.35,-0.15,-4.00,1032.47,2017.08,3721.13,3048.00,3507.83,0.00,0.00,0.00,0000 0000 0000 A000 020008
2018-10-05 04:31:43,0.00,0.00,0.00,24.90,29.37,31.38,-0.15,-4.00,1032.66,2017.06,3721.08,3048.00,3507.74,0.00,0.00,0.00,0000 0000 0000 A000 020008
2018-10-05 04:36:44,0.00,0.00,0.00,24.91,29.37,31.32,-0.15,-4.00,1032.72,2017.08,3721.12,3048.00,3507.85,0.00,0.00,0.00,0000 0000 0000 A000 020008
2018-10-05 04:41:46,0.00,0.00,0.00,24.91,29.37,31.31,-0.15,-4.00,1032.73,2017.04,3721.06,3048.00,3507.71,0.00,0.00,0.00,0000 0000 0000 A000 020008
2018-10-05 04:46:46,0.00,0.00,0.00,24.92,29.37,31.32,-0.15,-4.02,1032.73,2017.05,3721.03,3048.00,3507.50,0.00,0.00,0.00,0000 0000 0000 A000 020008
2018-10-05 04:51:48,0.00,0.00,0.00,24.92,29.37,31.32,-0.15,-4.00,1032.73,2017.02,3721.02,3048.00,3507.21,0.00,0.00,0.00,0000 0000 0000 A000 020008
2018-10-05 04:56:49,0.00,0.00,0.00,24.92,29.38,31.34,-0.15,-4.00,1032.73,2017.03,3721.02,3048.00,3507.38,0.00,0.00,0.00,0000 0000 0000 A000 020008
2018-10-05 05:01:50,0.00,0.00,0.00,24.92,29.38,31.35,-0.15,-4.03,1032.75,2017.02,3721.02,3047.99,3507.21,0.00,0.00,0.00,0000 0000 0000 A000 020008
2018-10-05 05:06:52,0.00,0.00,0.00,24.93,29.39,31.38,-0.15,-4.02,1032.78,2017.04,3721.02,3047.99,3507.26,0.00,0.00,0.00,0000 0000 0000 A000 020008
2018-10-05 05:11:53,0.00,0.00,0.00,24.94,29.40,31.37,-0.15,-4.05,1032.95,2017.03,3721.00,3047.99,3507.14,0.00,0.00,0.00,0000 0000 0000 A000 020008
2018-10-05 05:16:54,0.00,0.00,0.00,24.95,29.40,31.34,-0.15,-4.02,1033.10,2017.01,3721.00,3047.99,3507.10,0.00,0.00,0.00,0000 0000 0000 A000 020008
2018-10-05 05:21:56,0.00,0.00,0.00,24.95,29.40,31.35,-0.15,-4.02,1033.20,2017.02,3721.01,3047.99,3507.11,0.00,0.00,0.00,0000 0000 0000 A000 020008
2018-10-05 05:26:57,0.00,0.00,0.00,24.95,29.40,31.37,-0.15,-4.04,1033.22,2017.01,3721.00,3047.99,3507.06,0.00,0.00,0.00,0000 0000 0000 A000 020008
2018-10-05 05:31:58,0.00,0.00,0.00,24.96,29.40,31.34,-0.15,-4.01,1033.22,2017.02,3721.00,3047.99,3507.05,0.00,0.00,0.00,0000 0000 0000 A000 020008
2018-10-05 05:37:00,0.00,0.00,0.00,24.97,29.41,31.37,-0.15,-4.03,1033.22,2017.02,3721.01,3047.99,3507.07,0.00,0.00,0.00,0000 0000 0000 A000 020008
2018-10-05 05:42:01,0.00,0.00,0.00,24.97,29.42,31.40,-0.15,-4.03,1033.22,2017.02,3721.00,3047.99,3507.04,0.00,0.00,0.00,0000 0000 0000 A000 020008
2018-10-05 05:47:02,0.00,0.00,0.00,24.97,29.42,31.42,-0.15,-4.03,1033.22,2017.01,3721.00,3047.98,3507.02,0.00,0.00,0.00,0000 0000 0000 A000 020008
2018-10-05 05:52:04,0.00,0.00,0.00,24.98,29.42,31.40,-0.15,-4.04,1033.23,2017.01,3721.00,3047.98,3507.01,0.00,0.00,0.00,0000 0000 0000 A000 020008
2018-10-05 05:57:05,0.00,0.00,0.00,24.99,29.42,31.41,-0.15,-4.05,1033.24,2017.00,3721.00,3047.99,3507.04,0.00,0.00,0.00,0000 0000 0000 A000 020008
2018-10-05 06:02:05,0.00,0.00,0.00,25.00,29.43,31.42,-0.15,-4.08,1033.27,2017.01,3721.00,3047.98,3507.01,0.00,0.00,0.00,0000 0000 0000 A000 020008
2018-10-05 06:07:06,0.00,0.00,0.00,25.00,29.44,31.44,-0.15,-4.08,1033.35,2017.00,3721.00,3047.98,3507.00,0.00,0.00,0.00,0000 0000 0000 A000 020008
2018-10-05 06:12:07,0.00,0.00,0.00,25.00,29.45,31.42,-0.15,-4.09,1033.41,2017.00,3721.00,3047.99,3507.01,0.00,0.00,0.00,0000 0000 0000 A000 020008
2018-10-05 06:17:09,0.00,0.00,0.00,25.00,29.45,31.42,-0.15,-4.09,1033.57,2017.00,3721.00,3047.97,3507.00,0.00,0.00,0.00,0000 0000 0000 A000 020008
2018-10-05 06:22:10,0.00,0.00,0.00,25.02,29.45,31.46,-0.15,-4.09,1033.61,2017.00,3720.99,3047.96,3507.00,0.00,0.00,0.00,0000 0000 0000 A000 020008
2018-10-05 06:27:11,0.00,0.00,0.00,25.02,29.45,31.41,-0.15,-4.07,1033.65,2017.00,3720.99,3047.97,3507.00,0.00,0.00,0.00,0000 0000 0000 A000 020008
2018-10-05 06:32:13,0.00,0.00,0.00,25.02,29.46,31.45,-0.15,-4.14,1033.70,2017.00,3720.99,3047.96,3507.00,0.00,0.00,0.00,0000 0000 0000 A000 020008
2018-10-05 06:37:14,0.00,0.00,0.00,25.02,29.47,31.51,-0.15,-4.09,1033.71,2017.00,3720.99,3047.94,3507.00,0.00,0.00,0.00,0000 0000 0000 A000 020008
2018-10-05 06:42:15,0.00,0.00,0.00,25.02,29.47,31.49,-0.15,-4.17,1033.71,2017.00,3720.98,3047.92,3507.00,0.00,0.00,0.00,0000 0000 0000 A000 020008
2018-10-05 06:47:16,0.00,0.00,0.00,25.03,29.47,31.51,-0.15,-4.17,1033.71,2017.00,3720.96,3047.79,3506.99,0.00,0.00,0.00,0000 0000 0000 A000 020008
2018-10-05 06:52:17,0.00,0.00,0.00,25.05,29.47,31.50,-0.15,-4.24,1033.71,2017.00,3720.90,3047.46,3506.98,0.00,0.00,0.00,0000 0000 0000 A000 020008
2018-10-05 06:57:18,0.00,0.00,0.00,25.05,29.49,31.47,-0.15,-4.22,1033.73,2016.99,3720.95,3047.49,3506.98,0.00,0.00,0.00,0000 0000 0000 A000 020008
2018-10-05 07:02:20,0.00,0.00,0.00,25.06,29.50,31.51,-0.15,-4.22,1033.74,2016.99,3720.94,3047.61,3506.99,0.00,0.00,0.00,0000 0000 0000 A000 020008
2018-10-05 07:07:21,0.00,0.00,0.00,25.07,29.50,31.53,-0.15,-4.18,1033.79,2016.99,3720.90,3047.30,3506.97,0.00,0.00,0.00,0000 0000 0000 A000 020008
2018-10-05 07:12:22,0.00,0.00,0.00,25.08,29.50,31.51,-0.15,-4.22,1033.93,2016.99,3720.62,3047.16,3506.95,0.00,0.00,0.00,0000 0000 0000 A000 020008
2018-10-05 07:17:23,0.00,0.00,0.00,25.10,29.50,31.52,-0.15,-4.22,1034.05,2016.99,3720.37,3047.07,3506.85,0.00,0.00,0.00,0000 0000 0000 A000 020008
2018-10-05 07:22:24,0.00,0.00,0.00,25.10,29.51,31.55,-0.15,-4.24,1034.06,2016.98,3720.30,3047.06,3506.83,0.00,0.00,0.00,0000 0000 0000 A000 020008
2018-10-05 07:27:25,0.00,0.00,0.00,25.10,29.52,31.54,-0.15,-4.22,1034.08,2016.98,3720.11,3047.02,3506.58,0.00,0.00,0.00,0000 0000 0000 A000 020008
2018-10-05 07:32:26,0.00,0.00,0.00,25.11,29.52,31.54,-0.15,-4.22,1034.15,2016.98,3720.09,3047.01,3506.44,0.00,0.00,0.00,0000 0000 0000 A000 020008
2018-10-05 07:37:27,0.00,0.00,0.00,25.12,29.52,31.52,-0.15,-4.25,1034.18,2016.97,3720.09,3047.02,3506.48,0.00,0.00,0.00,0000 0000 0000 A000 020008
2018-10-05 07:42:28,0.00,0.00,0.00,25.13,29.53,31.52,-0.15,-4.25,1034.19,2016.95,3720.05,3047.00,3506.21,0.00,0.00,0.00,0000 0000 0000 A000 020008
2018-10-05 07:47:30,0.00,0.00,0.00,25.15,29.55,31.57,-0.15,-4.24,1034.19,2016.96,3720.01,3047.00,3506.09,0.00,0.00,0.00,0000 0000 0000 A000 020008
2018-10-05 07:52:31,0.00,0.00,0.00,25.16,29.55,31.55,-0.15,-4.24,1034.21,2016.94,3720.01,3047.00,3506.05,0.00,0.00,0.00,0000 0000 0000 A000 020008
2018-10-05 07:57:32,0.00,0.00,0.00,25.17,29.55,31.62,-0.15,-4.24,1034.22,2016.91,3720.00,3047.00,3506.04,0.00,0.00,0.00,0000 0000 0000 A000 020008
2018-10-05 08:02:33,0.00,0.00,0.00,25.17,29.56,31.59,-0.15,-4.24,1034.35,2016.83,3720.00,3047.00,3506.01,0.00,0.00,0.00,0000 0000 0000 A000 020008
2018-10-05 08:07:34,0.00,0.00,0.00,25.19,29.57,31.64,-0.15,-4.24,1034.52,2016.70,3719.99,3046.99,3506.00,0.00,0.00,0.00,0000 0000 0000 A000 020008
2018-10-05 08:12:36,0.00,0.00,0.00,25.20,29.57,31.64,-0.15,-4.24,1034.63,2016.69,3719.99,3046.99,3506.00,0.00,0.00,0.00,0000 0000 0000 A000 020008
2018-10-05 08:17:37,0.00,0.00,0.00,25.20,29.57,31.60,-0.15,-4.25,1034.66,2016.52,3719.99,3046.97,3506.00,0.00,0.00,0.00,0000 0000 0000 A000 020008
2018-10-05 08:22:38,0.00,0.00,0.00,25.22,29.59,31.65,-0.15,-4.23,1034.67,2016.43,3719.99,3046.98,3506.00,0.00,0.00,0.00,0000 0000 0000 A000 020008
2018-10-05 08:27:39,0.00,0.00,0.00,25.22,29.60,31.70,-0.15,-4.25,1034.68,2016.26,3719.98,3046.97,3505.99,0.00,0.00,0.00,0001 0000 0000 A000 420008
2018-10-05 08:32:40,0.00,0.00,0.00,25.22,29.60,31.65,-0.15,-4.24,1034.68,2016.17,3719.96,3046.90,3505.99,0.00,0.00,0.00,0001 0000 0000 A000 420008
2018-10-05 08:37:42,0.00,0.00,0.00,25.23,29.60,31.62,-0.15,-4.25,1034.69,2016.22,3719.98,3046.92,3505.99,0.00,0.00,0.00,0001 0000 0000 A000 420008
2018-10-05 08:42:43,0.00,0.00,0.00,25.25,29.62,31.65,-0.15,-4.25,1034.69,2016.12,3719.96,3046.87,3505.98,0.00,0.00,0.00,0001 0000 0000 A000 420008
2018-10-05 08:47:44,0.00,0.00,0.00,25.25,29.62,31.64,-0.15,-4.25,1034.71,2016.09,3719.97,3046.79,3505.96,0.00,0.00,0.00,0001 0000 0000 A000 420008
2018-10-05 08:52:45,0.00,0.00,0.00,25.25,29.62,31.65,-0.15,-4.25,1034.72,2016.04,3719.94,3046.65,3505.96,0.00,0.00,0.00,0001 0000 0000 A000 420008
2018-10-05 08:57:46,0.00,0.00,0.00,25.27,29.63,31.68,-0.15,-4.25,1034.77,2016.03,3719.70,3046.33,3505.91,0.00,0.00,0.00,0001 0000 0000 A000 420008
2018-10-05 09:02:47,0.00,0.00,0.00,25.27,29.65,31.68,-0.15,-4.25,1034.99,2016.04,3719.62,3046.24,3505.88,0.00,0.00,0.00,0001 0000 0000 A000 420008
2018-10-05 09:07:48,0.00,0.00,0.00,25.27,29.65,31.69,-0.15,-4.25,1035.03,2016.00,3719.44,3046.11,3505.73,0.00,0.00,0.00,0000 0000 0000 A000 020008
2018-10-05 09:12:49,0.00,0.00,0.00,25.29,29.65,31.68,-0.15,-4.25,1035.09,2016.00,3719.15,3046.03,3505.33,0.00,0.00,0.00,0000 0000 0000 A000 020008
2018-10-05 09:17:50,0.00,0.00,0.00,25.30,29.67,31.66,-0.15,-4.24,1035.13,2016.00,3719.05,3046.01,3505.11,0.00,0.00,0.00,0000 0000 0000 A000 020008
2018-10-05 09:22:51,0.00,0.00,0.00,25.30,29.67,31.70,-0.15,-4.25,1035.14,2016.00,3719.02,3046.01,3505.05,0.00,0.00,0.00,0000 0000 0000 A000 020008
2018-10-05 09:27:53,0.00,0.00,0.00,25.30,29.67,31.73,-0.15,-4.25,1035.16,2016.00,3719.00,3046.01,3505.03,0.00,0.00,0.00,0000 0000 0000 A000 020008
2018-10-05 09:32:54,0.00,0.00,0.00,25.31,29.68,31.76,-0.15,-4.25,1035.17,2016.00,3719.00,3046.00,3505.01,0.00,0.00,0.00,0000 0000 0000 A000 020008
2018-10-05 09:37:55,0.00,0.00,0.00,25.32,29.70,31.75,-0.15,-4.25,1035.17,2016.00,3719.00,3046.00,3505.00,0.00,0.00,0.00,0000 0000 0000 A000 020008
2018-10-05 09:42:57,0.00,0.00,0.00,25.32,29.70,31.78,-0.15,-4.25,1035.17,2016.00,3719.00,3046.00,3505.01,0.00,0.00,0.00,0000 0000 0000 A000 020008
2018-10-05 09:47:58,0.00,0.00,0.00,25.32,29.70,31.77,-0.15,-4.25,1035.17,2016.00,3718.99,3046.00,3505.00,0.00,0.00,0.00,0000 0000 0000 A000 020008
2018-10-05 09:52:59,0.00,0.00,0.00,25.34,29.72,31.77,-0.15,-4.25,1035.17,2016.00,3718.99,3045.99,3505.00,0.00,0.00,0.00,0000 0000 0000 A000 020008
2018-10-05 09:58:00,0.00,0.00,0.00,25.35,29.72,31.75,-0.15,-4.25,1035.18,2016.00,3718.99,3045.99,3505.00,0.00,0.00,0.00,0000 0000 0000 A000 020008
2018-10-05 10:03:02,0.00,0.00,0.00,25.35,29.72,31.78,-0.15,-4.25,1035.19,2016.00,3718.98,3045.99,3505.00,0.00,0.00,0.00,0000 0000 0000 A000 020008
2018-10-05 10:08:03,0.00,0.00,0.00,25.35,29.73,31.79,-0.15,-4.25,1035.19,2016.00,3718.98,3045.97,3505.00,0.00,0.00,0.00,0000 0000 0000 A000 020008
2018-10-05 10:13:04,0.00,0.00,0.00,25.36,29.75,31.81,-0.15,-4.25,1035.21,2016.00,3718.97,3045.97,3504.98,0.00,0.00,0.00,0000 0000 0000 A000 020008
2018-10-05 10:18:05,0.00,0.00,0.00,25.37,29.75,31.78,-0.15,-4.25,1035.32,2016.00,3718.95,3045.94,3504.97,0.00,0.00,0.00,0000 0000 0000 A000 020008
2018-10-05 10:23:06,0.00,0.00,0.00,25.37,29.75,31.82,-0.15,-4.25,1035.47,2015.98,3718.88,3045.87,3504.93,0.00,0.00,0.00,0000 0000 0000 A000 020008
2018-10-05 10:28:07,0.00,0.00,0.00,25.37,29.76,31.80,-0.15,-4.25,1035.58,2015.98,3718.70,3045.65,3504.86,0.00,0.00,0.00,0000 0000 0000 A000 020008
2018-10-05 10:33:08,0.00,0.00,0.00,25.37,29.77,31.83,-0.15,-4.25,1035.65,2015.98,3718.71,3045.79,3504.83,0.00,0.00,0.00,0000 0000 0000 A000 020008
2018-10-05 10:38:10,0.00,0.00,0.00,25.37,29.77,31.75,-0.15,-4.25,1035.66,2015.98,3718.66,3045.67,3504.79,0.00,0.00,0.00,0000 0000 0000 A000 020008
2018-10-05 10:43:11,0.00,0.00,0.00,25.37,29.77,31.78,-0.15,-4.25,1035.66,2015.98,3718.31,3045.33,3504.48,0.00,0.00,0.00,0000 0000 0000 A000 020008
2018-10-05 10:48:12,0.00,0.00,0.00,25.38,29.77,31.81,-0.15,-4.25,1035.66,2015.95,3718.09,3045.13,3504.21,0.00,0.00,0.00,0000 0000 0000 A000 020008
2018-10-05 10:53:13,0.00,0.00,0.00,25.40,29.77,31.82,-0.15,-4.25,1035.66,2015.96,3718.07,3045.10,3504.15,0.00,0.00,0.00,0000 0000 0000 A000 020008
2018-10-05 10:58:15,0.00,0.00,0.00,25.40,29.79,31.82,-0.15,-4.25,1035.66,2015.95,3718.04,3045.05,3504.08,0.00,0.00,0.00,0000 0000 0000 A000 020008
2018-10-05 11:03:16,0.00,0.00,0.00,25.40,29.80,31.88,-0.15,-4.25,1035.66,2015.92,3718.02,3045.04,3504.04,0.00,0.00,0.00,0000 0000 0000 A000 020008
2018-10-05 11:08:17,0.00,0.00,0.00,25.40,29.80,31.82,-0.15,-4.25,1035.67,2015.89,3718.01,3045.01,3504.02,0.00,0.00,0.00,0000 0000 0000 A000 020008
2018-10-05 11:13:18,0.00,0.00,0.00,25.40,29.80,31.83,-0.15,-4.25,1035.66,2015.68,3718.00,3045.00,3504.00,0.00,0.00,0.00,0000 0000 0000 A000 020008
2018-10-05 11:18:20,0.00,0.00,0.00,25.41,29.81,31.85,-0.15,-4.25,1035.66,2015.64,3718.00,3045.00,3504.00,0.00,0.00,0.00,0000 0000 0000 A000 020008
2018-10-05 11:23:21,0.00,0.00,0.00,25.42,29.82,31.82,-0.15,-4.25,1035.66,2015.50,3718.00,3045.00,3504.00,0.00,0.00,0.00,0000 0000 0000 A000 020008
2018-10-05 11:28:22,0.00,0.00,0.00,25.42,29.82,31.84,-0.15,-4.25,1035.67,2015.36,3718.00,3045.00,3504.00,0.00,0.00,0.00,0000 0000 0000 A000 020008
2018-10-05 11:33:23,0.00,0.00,0.00,25.42,29.82,31.83,-0.15,-4.25,1035.67,2015.19,3718.00,3045.00,3504.00,0.00,0.00,0.00,0000 0000 0000 A000 020008
2018-10-05 11:38:24,0.00,0.00,0.00,25.42,29.83,31.82,-0.15,-4.25,1035.68,2015.17,3718.00,3045.00,3504.00,0.00,0.00,0.00,0000 0000 0000 A000 020008
2018-10-05 11:43:25,0.00,0.00,0.00,25.42,29.85,31.85,-0.15,-4.25,1035.67,2015.17,3717.99,3045.00,3503.99,0.00,0.00,0.00,0001 0000 0000 A000 420008
2018-10-05 11:48:26,0.00,0.00,0.00,25.44,29.85,31.91,-0.15,-4.25,1035.68,2015.10,3717.99,3044.99,3503.99,0.00,0.00,0.00,0001 0000 0000 A000 420008
2018-10-05 11:53:27,0.00,0.00,0.00,25.45,29.85,31.91,-0.15,-4.25,1035.67,2015.08,3717.98,3044.99,3503.99,0.00,0.00,0.00,0001 0000 0000 A000 420008
2018-10-05 11:58:28,0.00,0.00,0.00,25.45,29.85,31.92,-0.15,-4.25,1035.68,2015.03,3717.90,3044.96,3503.96,0.00,0.00,0.00,0001 0000 0000 A000 420008
2018-10-05 12:03:29,0.00,0.00,0.00,25.45,29.86,31.94,-0.15,-4.25,1035.69,2015.02,3717.85,3044.94,3503.95,0.00,0.00,0.00,0001 0000 0000 A000 420008
2018-10-05 12:08:30,0.00,0.00,0.00,25.45,29.87,31.89,-0.16,-4.25,1035.68,2015.04,3717.90,3044.96,3503.95,0.00,0.00,0.00,0001 0000 0000 A000 420008
2018-10-05 12:13:31,0.00,0.00,0.00,25.45,29.87,31.92,-0.15,-4.26,1035.69,2015.01,3717.87,3044.96,3503.93,0.00,0.00,0.00,0001 0000 0000 A000 420008
2018-10-05 12:18:32,0.00,0.00,0.00,25.46,29.87,31.87,-0.15,-4.27,1035.69,2015.01,3717.48,3044.83,3503.65,0.00,0.00,0.00,0000 0000 0000 A000 020008
2018-10-05 12:23:34,0.00,0.00,0.00,25.47,29.87,31.95,-0.15,-4.25,1035.69,2015.00,3717.23,3044.63,3503.40,0.00,0.00,0.00,0000 0000 0000 A000 020008
2018-10-05 12:28:35,0.00,0.00,0.00,25.47,29.88,31.94,-0.15,-4.27,1035.72,2015.01,3717.15,3044.49,3503.27,0.00,0.00,0.00,0000 0000 0000 A000 020008
2018-10-05 12:33:36,0.00,0.00,0.00,25.47,29.90,31.91,-0.15,-4.27,1035.79,2015.00,3717.14,3044.47,3503.20,0.00,0.00,0.00,0000 0000 0000 A000 020008
2018-10-05 12:38:37,0.00,0.00,0.00,25.47,29.90,31.93,-0.15,-4.26,1035.85,2015.00,3717.07,3044.41,3503.12,0.00,0.00,0.00,0000 0000 0000 A000 020008
2018-10-05 12:43:38,0.00,0.00,0.00,25.47,29.90,31.90,-0.15,-4.28,1035.86,2015.00,3717.09,3044.31,3503.13,0.00,0.00,0.00,0000 0000 0000 A000 020008
2018-10-05 12:48:40,0.00,0.00,0.00,25.49,29.90,31.93,-0.15,-4.28,1035.92,2015.00,3717.16,3044.47,3503.26,0.00,0.00,0.00,0000 0000 0000 A000 020008
2018-10-05 12:53:41,0.00,0.00,0.00,25.50,29.91,31.94,-0.15,-4.26,1035.81,2015.00,3717.06,3044.21,3503.08,0.00,0.00,0.00,0000 0000 0000 A000 020008
2018-10-05 12:58:42,0.00,0.00,0.00,25.50,29.92,31.93,-0.15,-4.28,1035.83,2015.00,3717.01,3044.05,3503.02,0.00,0.00,0.00,0000 0000 0000 A000 020008
2018-10-05 13:03:44,0.00,0.00,0.00,25.50,29.92,31.90,-0.15,-4.28,1035.86,2015.00,3717.01,3044.05,3503.00,0.00,0.00,0.00,0000 0000 0000 A000 020008
2018-10-05 13:08:45,0.00,0.00,0.00,25.50,29.92,31.92,-0.15,-4.31,1035.92,2015.00,3717.00,3044.02,3503.00,0.00,0.00,0.00,0000 0000 0000 A000 020008
2018-10-05 13:13:46,0.00,0.00,0.00,25.50,29.92,31.94,-0.15,-4.31,1035.97,2014.99,3717.00,3044.01,3503.00,0.00,0.00,0.00,0000 0000 0000 A000 020008
2018-10-05 13:18:47,0.00,0.00,0.00,25.50,29.93,31.98,-0.16,-4.31,1036.03,2014.98,3717.00,3044.02,3503.00,0.00,0.00,0.00,0000 0000 0000 A000 020008